Theta_e
302 298 297 297 298 300 300 299 300 298 296 295 296 294 294 294 295 297 293 291 290 290 291 292 293 293 294 296 297 298 299 297 296 296 297 298 298 298 297 296 295 294 294 297 296 295 293 292 292 291 291 291 291 291 291 292 292 293 292 293 292 292 292 292 291 292 292 292 292 291 291 291 292 291 292 291 292 291 291 291 291 291 290 291 290 290
299 297 297 300 301 300 299 298 295 292 293 294 295 294 293 295 291 295 292 288 291 290 291 293 292 292 293 295 296 297 297 296 298 298 298 298 299 298 298 298 296 295 296 296 294 294 293 291 291 290 290 290 289 290 290 291 291 292 292 292 292 292 291 292 292 292 292 293 292 292 292 291 291 290 290 290 291 291 291 290 290 290 290 290 289 289
296 295 299 301 300 294 292 293 293 295 293 292 294 294 291 293 295 295 291 289 290 289 290 292 290 291 293 295 297 297 297 298 299 299 299 300 300 300 300 299 297 295 295 294 293 293 291 291 290 289 289 289 290 290 289 291 291 291 291 292 292 292 291 292 292 292 292 291 291 291 290 290 290 290 290 290 290 290 290 290 290 290 290 289 289 289
292 297 300 294 295 293 289 289 291 291 292 293 291 291 291 295 291 292 290 288 289 290 291 291 288 290 293 295 296 297 297 298 299 299 300 301 299 300 300 300 297 296 295 293 292 291 290 290 289 288 287 288 289 289 288 289 290 290 291 292 292 291 292 292 291 291 292 291 291 290 290 290 289 289 289 290 289 289 289 289 290 290 289 289 288 288
296 297 287 292 295 296 293 288 290 291 292 293 294 294 293 294 293 291 291 289 290 289 287 289 290 292 294 294 295 295 293 292 294 295 296 298 300 301 302 300 298 297 296 294 292 291 289 289 288 288 288 288 287 288 288 289 289 289 290 292 292 291 291 291 291 291 291 290 289 289 289 288 288 288 288 288 288 289 289 288 289 289 289 288 288 288
297 295 291 291 293 293 293 288 291 294 292 293 293 293 295 295 292 292 290 290 290 291 289 289 287 289 296 295 294 296 293 293 293 293 295 297 298 298 297 297 297 298 297 296 293 292 290 289 289 288 287 286 287 288 288 289 289 289 290 291 291 291 291 290 290 291 290 289 289 288 287 286 287 287 287 287 288 288 288 288 289 288 288 288 287 287
297 288 293 295 293 293 293 294 294 294 293 291 293 295 294 293 292 290 289 289 287 287 290 290 286 284 292 292 293 294 294 295 296 294 296 299 302 300 298 297 296 296 296 296 295 293 291 289 288 288 287 287 286 288 289 288 289 289 291 291 290 290 290 290 290 290 290 289 289 288 288 288 288 287 288 289 288 287 287 287 287 287 288 288 287 287
292 288 290 293 293 293 293 291 295 292 292 291 290 288 290 290 289 290 289 290 289 289 290 289 291 285 285 291 294 295 294 295 296 298 300 301 301 301 300 297 297 297 296 295 294 293 292 290 289 287 287 287 287 288 288 288 288 288 289 289 289 290 290 290 290 289 289 288 288 288 287 287 287 287 287 288 287 287 286 286 286 287 286 287 286 286
292 289 290 291 291 291 292 295 294 295 294 292 286 289 290 290 291 289 290 289 288 285 285 288 291 285 285 290 294 294 292 293 294 296 298 300 302 301 301 298 297 298 297 296 294 293 292 290 289 289 287 287 287 287 287 288 288 288 288 288 289 289 289 289 289 288 288 288 288 288 287 286 287 287 287 287 286 286 286 285 285 285 286 286 286 286
292 293 294 296 292 292 294 286 290 295 293 288 287 288 287 288 288 289 288 288 287 284 282 286 289 284 285 290 288 288 291 293 295 297 299 300 302 303 300 298 297 297 296 296 295 294 293 292 290 289 289 287 286 287 288 288 288 287 288 287 287 287 288 288 287 287 287 287 287 286 286 286 286 286 286 286 285 285 285 284 285 285 285 285 285 285
290 290 290 293 294 295 288 286 285 287 287 288 290 292 290 289 288 287 287 287 286 281 284 289 289 288 283 291 291 288 291 293 296 298 299 301 302 300 299 298 298 295 295 293 293 293 293 292 290 288 287 286 286 286 287 287 287 287 287 287 286 287 287 286 286 286 286 286 286 286 286 286 285 286 285 284 284 284 284 283 284 284 284 284 284 284
290 290 291 293 290 288 291 288 287 285 288 290 290 290 291 288 286 286 285 286 282 282 288 290 290 289 281 288 292 295 294 296 297 297 298 300 301 302 301 298 296 294 293 292 291 291 291 289 289 288 287 286 285 285 286 286 287 286 286 287 286 286 286 285 285 285 285 285 285 285 285 285 285 284 283 283 283 283 283 283 282 283 283 283 283 283
289 290 293 291 290 292 292 292 288 289 288 290 290 290 286 286 285 283 282 279 280 282 284 282 287 285 284 289 294 293 294 296 296 297 299 301 302 303 300 297 294 292 291 290 289 289 289 288 287 286 286 285 285 284 285 286 286 286 286 286 286 285 285 285 284 284 284 284 284 284 284 284 284 284 283 283 282 283 282 282 282 282 281 282 282 282
292 288 289 293 291 292 296 291 289 287 287 288 288 288 286 282 281 278 283 283 282 286 284 284 286 282 289 291 295 295 297 298 298 298 298 299 301 303 299 294 291 289 289 289 289 289 288 288 287 286 286 285 284 284 285 285 286 285 286 286 286 284 284 284 284 284 283 283 284 284 283 283 283 282 282 282 282 282 282 282 281 281 281 281 281 281
287 288 289 290 291 295 294 295 296 294 287 288 293 291 288 287 283 279 282 280 282 285 283 284 282 283 284 289 296 297 298 299 299 299 300 298 297 297 291 289 289 289 288 289 289 288 288 287 287 286 285 285 285 285 285 285 285 285 285 285 285 284 284 283 283 283 283 283 283 283 283 282 282 281 282 282 282 281 281 281 280 280 280 280 280 280
289 290 294 294 291 293 292 295 294 291 289 289 291 292 287 286 290 284 285 284 282 283 283 280 283 289 289 293 294 291 293 294 297 298 298 296 295 295 291 290 289 289 289 288 288 288 288 288 287 286 285 285 285 285 285 285 285 285 285 285 285 284 283 283 283 283 283 283 283 282 282 281 281 281 281 280 280 280 280 280 279 279 279 279 279 280
286 287 289 290 289 291 290 290 292 294 287 288 288 285 289 292 291 287 284 281 279 281 280 287 285 289 293 293 292 294 292 293 294 294 295 295 296 295 293 292 292 291 290 288 288 288 288 287 287 286 285 285 285 285 284 285 285 285 285 284 285 284 283 283 283 283 283 283 282 281 281 280 280 279 279 279 279 279 279 278 278 278 279 279 279 279
288 291 285 290 288 288 284 286 290 289 291 288 284 288 289 293 292 287 282 284 282 279 282 285 283 286 287 284 291 293 291 292 293 293 293 293 293 293 294 294 293 293 291 289 288 288 288 287 286 286 286 285 285 285 285 285 285 285 285 285 284 283 282 282 282 282 282 281 280 280 279 279 279 279 279 278 278 278 277 277 278 278 278 278 279 278
293 286 290 286 287 286 285 289 290 290 288 289 287 294 288 283 282 286 284 277 278 277 280 284 286 286 288 288 290 289 290 291 292 294 293 292 292 292 293 293 293 292 291 289 288 287 287 286 286 286 285 285 285 285 285 285 285 285 284 285 284 283 283 282 282 282 281 280 280 279 279 278 278 278 278 277 277 277 276 276 277 277 277 277 277 277
293 287 286 284 286 287 287 289 284 287 288 289 289 287 288 288 287 283 285 285 285 280 280 280 284 283 292 292 293 293 292 294 293 293 293 294 294 294 293 292 292 291 290 289 288 287 287 287 287 286 285 285 285 285 285 285 284 284 284 284 284 283 283 282 281 281 279 279 279 278 278 278 278 277 277 277 276 276 276 276 276 276 276 276 277 277
289 291 285 285 284 287 284 286 287 289 284 284 285 286 286 286 287 287 285 283 283 281 281 280 279 285 291 295 294 294 294 294 294 294 295 296 296 296 295 293 292 292 291 290 288 287 287 286 286 286 286 285 285 285 285 284 283 284 284 283 283 282 281 281 280 280 279 279 278 277 277 277 277 276 276 276 276 276 276 276 276 276 276 276 275 276
288 286 285 286 282 284 288 291 292 293 292 288 287 285 287 284 282 280 280 285 282 283 279 280 278 285 293 292 295 295 295 296 297 296 296 297 296 296 296 294 293 293 293 291 290 288 287 286 286 286 285 285 284 284 283 283 283 283 283 283 283 282 281 280 279 279 278 278 278 277 277 276 276 276 276 275 275 275 275 275 275 275 275 274 275 275
291 287 287 286 288 290 290 287 284 288 293 292 291 289 290 289 288 284 279 282 278 283 285 284 281 284 294 294 295 295 295 294 297 297 296 297 296 295 295 294 294 293 292 291 290 288 287 286 285 285 284 284 284 283 283 283 282 282 282 282 282 281 280 280 279 279 278 277 277 277 276 276 276 275 275 275 275 275 275 275 275 275 274 274 274 274
291 287 283 286 290 288 281 285 286 285 291 288 289 290 290 286 288 287 287 287 284 284 281 281 277 283 293 295 296 295 296 296 296 296 297 296 295 295 295 293 292 290 290 289 288 287 286 285 285 284 283 283 283 282 282 282 282 282 282 281 281 280 279 279 278 278 277 277 276 276 276 275 275 275 274 274 275 274 274 274 274 274 273 273 273 273
285 285 285 284 283 286 288 285 284 286 287 287 287 288 289 291 290 288 285 285 282 284 284 282 276 283 293 294 296 292 292 292 293 292 292 295 295 295 295 293 291 289 288 288 287 286 284 284 283 283 283 283 282 282 282 282 282 281 281 281 280 280 279 278 278 277 277 276 275 275 275 275 275 274 274 274 274 274 274 273 273 273 272 272 272 272
288 286 285 280 278 277 277 278 282 281 281 286 286 286 288 288 288 285 282 284 279 283 285 282 282 288 293 294 292 292 292 293 294 293 292 291 292 293 293 292 290 288 287 287 286 285 284 284 283 283 283 282 282 282 281 281 281 281 281 280 280 279 278 277 277 277 276 276 275 274 274 274 274 274 274 274 273 273 273 273 272 272 272 271 271 270
286 287 288 286 284 282 284 287 288 287 285 282 284 285 286 287 289 288 287 284 281 284 283 285 285 287 289 291 292 294 294 293 293 293 292 292 290 289 289 290 290 290 288 287 286 285 284 283 283 283 283 282 282 282 281 281 281 280 280 279 279 278 277 277 276 276 275 275 274 274 274 274 274 274 273 273 273 273 272 272 271 270 270 270 269 268
285 285 288 289 288 289 290 290 291 291 285 286 285 284 286 286 285 284 284 282 288 282 280 287 288 285 287 290 292 293 294 295 295 295 295 294 292 291 290 290 290 290 290 288 286 285 284 284 283 282 282 282 281 281 281 281 281 280 279 278 278 277 277 276 275 275 274 274 274 274 274 274 274 273 273 273 272 271 271 270 269 269 269 268 267 267
284 284 287 287 287 290 291 290 291 290 289 288 287 286 285 286 285 282 283 287 288 283 281 287 288 286 289 291 293 293 294 295 295 296 296 296 295 294 293 293 293 292 291 288 287 286 285 284 283 283 282 282 281 281 280 280 280 280 279 278 277 276 276 275 275 274 274 273 273 274 274 273 273 272 272 271 271 270 269 268 268 267 267 266 266 266
286 285 287 288 286 288 288 289 290 289 288 287 287 288 289 287 286 286 285 287 287 286 288 288 288 288 291 292 294 295 297 296 296 296 296 295 293 294 294 294 293 293 291 288 287 286 285 284 284 283 282 281 281 280 280 280 279 279 278 277 276 276 275 275 274 273 273 273 273 273 273 272 272 271 271 270 269 269 268 267 266 266 265 265 265 266
286 283 288 286 284 284 287 289 289 289 287 285 287 288 287 287 287 287 286 287 287 286 288 288 287 287 292 295 295 296 296 295 295 294 294 295 295 295 295 294 294 294 293 290 288 287 286 285 284 283 282 281 281 280 280 280 279 278 278 276 275 275 274 274 273 273 273 273 273 272 272 271 271 270 269 269 268 267 266 265 265 264 264 264 264 264
287 284 287 285 282 281 286 287 287 287 286 284 283 285 285 285 284 286 285 287 285 284 286 286 284 285 290 294 294 294 294 293 292 293 294 294 295 295 294 294 294 295 295 293 291 289 287 285 284 283 282 282 281 280 280 279 278 278 277 276 275 274 273 273 273 272 272 273 272 271 271 271 270 269 268 267 266 265 265 264 263 263 264 264 264 264
285 285 283 283 280 279 285 286 285 285 282 278 280 284 287 287 288 289 290 290 289 289 285 283 284 290 292 293 292 293 293 293 293 294 294 295 295 295 294 294 295 295 295 296 295 290 287 285 284 284 283 282 281 280 280 279 278 277 276 275 275 273 272 272 272 272 271 271 271 270 270 269 268 267 266 266 265 264 263 263 263 263 263 263 264 264
286 285 283 285 279 280 284 284 285 281 274 276 288 291 290 287 288 286 287 289 291 291 288 290 291 293 293 293 293 293 293 294 295 296 297 296 295 295 295 295 296 296 296 297 296 292 288 287 285 285 284 283 282 281 281 279 278 277 276 275 273 272 271 271 271 271 270 270 270 269 269 267 267 266 266 265 264 263 263 262 262 263 264 264 264 264
285 285 283 285 281 279 283 282 279 273 275 287 292 294 293 292 291 289 290 291 292 293 292 291 292 292 294 294 295 295 295 296 297 296 296 297 296 295 295 295 296 296 296 297 295 292 289 287 286 284 283 282 281 281 279 278 278 276 274 273 272 271 270 270 270 270 270 269 269 268 267 266 266 265 265 264 263 262 262 262 263 263 264 264 264 264
285 284 284 283 283 281 279 279 273 274 285 288 291 292 294 293 292 290 288 290 292 292 292 291 292 294 294 295 295 296 295 296 296 296 296 297 297 296 295 295 296 297 297 297 296 293 289 287 285 284 283 282 281 279 278 277 276 275 273 272 271 270 270 270 269 269 269 268 268 267 266 265 265 264 263 263 262 262 262 263 263 262 263 263 264 264
287 286 285 281 285 277 278 278 278 285 283 285 287 289 290 287 288 287 283 287 292 293 292 291 292 293 293 293 294 294 295 294 292 293 296 297 296 296 296 296 297 297 298 298 297 295 290 287 285 284 282 281 280 278 277 276 274 273 271 270 269 269 269 269 269 268 268 267 267 266 266 265 264 263 262 262 261 261 261 262 262 263 264 263 263 263
290 285 285 282 280 285 278 277 278 277 274 281 289 293 295 295 295 294 289 285 293 294 294 293 291 292 292 293 293 294 293 289 288 291 295 297 298 296 296 297 297 297 297 296 293 290 289 287 285 283 282 280 278 277 275 274 273 271 269 269 269 268 268 268 268 268 267 266 266 265 264 264 263 262 262 261 261 261 262 262 263 263 263 262 262 263
289 289 287 284 281 283 280 277 275 275 278 287 288 292 294 295 295 290 287 282 291 293 294 293 292 293 293 292 293 293 290 287 287 291 296 297 297 296 296 296 296 295 294 292 290 288 286 285 283 281 279 277 275 274 273 272 271 270 269 269 268 268 267 267 268 267 266 266 265 265 263 263 262 262 261 260 261 261 260 261 262 262 263 263 263 263
285 285 285 281 279 281 280 278 276 281 280 288 291 292 294 295 296 289 278 278 291 293 294 293 292 293 293 293 293 291 289 287 288 292 297 296 294 295 294 294 294 292 288 286 286 286 283 281 279 278 277 276 275 273 272 272 271 270 269 268 268 267 267 267 267 267 266 266 264 263 262 262 261 261 260 260 260 260 261 262 262 262 262 262 263 263
282 283 284 279 280 280 281 278 281 282 288 291 292 294 294 294 291 281 276 284 293 294 295 295 294 294 294 293 293 290 292 293 294 295 296 285 287 287 287 287 288 288 286 284 283 283 280 279 279 278 277 276 273 271 271 271 270 269 269 268 267 267 268 268 267 265 265 264 262 262 261 261 260 259 260 260 260 261 261 262 262 261 261 261 262 262
282 283 283 283 280 279 280 278 278 283 288 293 294 294 293 289 280 279 289 296 295 294 296 296 294 294 294 293 293 293 294 295 295 295 295 293 291 291 286 284 283 282 283 283 281 279 278 277 276 276 275 274 272 271 270 270 269 269 268 267 267 268 268 266 265 264 263 262 261 260 260 260 260 259 259 259 260 260 260 261 260 260 260 262 261 260
283 283 277 281 282 283 281 278 277 274 287 295 293 291 291 286 286 294 295 295 296 295 295 295 295 295 294 293 293 294 294 294 295 295 295 295 293 289 284 282 282 281 280 279 279 279 277 276 275 274 273 272 271 270 270 270 269 268 267 267 267 266 265 264 263 262 262 261 259 259 258 259 258 259 259 259 259 259 259 260 260 259 260 260 260 260
289 285 282 284 285 280 279 277 277 285 290 294 293 287 289 292 296 296 295 294 296 296 295 295 295 295 295 294 294 294 294 294 294 295 295 294 292 288 283 282 282 281 279 278 278 278 276 275 274 272 270 269 269 269 270 270 269 267 267 267 264 263 262 262 261 261 260 258 258 258 258 258 258 259 259 259 259 259 259 259 259 260 261 260 261 261
291 288 289 286 288 286 283 286 290 293 294 295 295 295 295 296 297 297 297 296 296 296 297 295 296 296 295 295 294 295 294 294 294 295 294 293 291 286 282 281 281 280 278 277 276 276 276 274 272 270 268 268 268 268 269 270 268 267 266 264 263 262 261 260 260 259 258 258 258 258 258 258 259 259 258 258 259 259 260 258 259 260 261 260 261 262
294 295 294 291 289 294 294 294 295 294 295 294 296 297 297 297 297 296 295 295 296 297 297 296 296 296 296 295 293 293 293 294 294 294 293 292 291 287 282 280 279 278 278 276 275 275 274 272 270 268 266 266 267 267 268 269 268 266 265 262 262 261 260 259 258 258 257 257 257 257 257 257 257 257 257 258 259 259 260 259 260 260 261 261 262 262
289 290 289 286 290 288 284 294 293 294 295 295 295 297 297 297 297 297 295 296 296 297 297 296 297 296 296 293 293 293 294 294 294 294 294 293 290 286 282 280 279 277 276 274 275 273 272 270 268 266 266 265 266 267 267 267 268 266 263 261 261 260 259 258 258 257 257 257 257 256 257 258 259 258 257 257 259 259 259 260 260 260 260 261 262 262
286 291 286 286 287 285 286 292 294 297 298 297 297 295 295 295 296 296 297 297 297 297 297 297 296 294 294 292 292 293 293 294 293 293 293 291 290 287 283 280 278 276 275 275 274 272 270 269 267 266 265 264 265 266 266 266 264 263 262 261 260 259 258 258 258 257 257 257 257 257 257 258 257 257 258 258 258 259 260 260 260 260 261 261 261 261
288 289 283 287 285 287 290 291 292 293 294 294 296 295 296 296 296 296 295 295 295 295 295 295 296 295 295 295 295 293 291 292 293 293 292 291 289 285 282 280 278 275 274 273 272 270 269 268 267 266 265 264 265 264 264 263 261 261 261 260 258 258 258 258 257 257 256 257 257 257 257 257 257 258 258 257 257 258 259 259 259 260 261 262 263 264
286 282 287 287 283 283 285 288 292 287 286 292 295 296 296 297 295 294 294 294 294 294 295 294 294 295 294 294 294 293 291 291 292 292 290 290 289 287 283 279 276 274 273 273 271 270 269 268 267 266 265 264 264 263 262 260 260 260 260 258 258 258 258 257 256 256 257 257 258 257 257 257 256 256 256 257 258 258 258 259 262 262 262 262 266 267
283 284 285 282 283 282 289 293 294 291 290 292 294 295 296 296 295 294 293 294 295 295 295 294 293 293 293 293 293 291 290 292 292 292 290 289 289 287 283 278 274 273 272 271 269 268 268 268 266 265 264 263 262 262 260 259 259 258 258 258 258 258 257 257 257 257 257 257 257 257 257 257 257 257 257 257 257 257 258 259 260 263 264 266 266 266
Wind_Speed
2 6 6 9 12 12 10 14 14 3 1 2 1 3 10 10 12 13 3 3 2 3 14 18 17 19 21 21 21 20 10 11 16 19 20 17 11 11 13 12 12 14 16 9 11 12 13 13 12 11 10 10 11 12 12 13 13 13 12 11 11 9 9 8 8 7 7 6 5 3 3 3 3 2 1 2 1 1 2 2 3 4 4 4 5 5
2 7 12 19 16 3 7 8 3 2 2 7 6 6 10 6 13 3 1 5 2 3 7 9 13 17 20 18 20 21 11 23 25 20 19 20 15 15 15 13 13 13 6 8 9 11 12 12 13 11 10 12 16 14 13 14 15 13 13 13 11 9 9 8 8 7 6 5 4 4 3 3 2 1 1 1 2 2 2 3 4 5 5 5 5 5
6 10 17 4 5 7 6 3 4 8 6 3 7 4 5 11 7 10 1 5 2 4 11 8 14 18 20 19 22 22 21 18 21 18 22 19 20 15 11 12 10 9 11 10 12 12 12 14 15 12 12 13 15 15 15 14 14 13 12 12 11 10 9 8 7 6 5 4 3 2 2 1 1 0 1 1 2 2 3 4 5 5 5 5 5 5
4 11 13 7 7 8 4 2 4 2 2 5 4 5 11 2 3 7 4 2 4 4 9 9 17 18 19 19 23 23 18 16 15 17 18 16 19 21 16 7 9 11 12 13 14 15 14 15 15 13 14 14 13 13 14 15 16 11 11 12 12 10 9 8 7 6 5 5 4 3 2 2 0 1 0 2 4 4 5 6 6 5 5 5 5 5
13 1 1 4 5 8 5 4 7 7 8 6 8 10 11 9 7 7 4 5 4 5 3 11 14 15 12 11 8 5 2 4 12 10 15 17 16 18 5 4 9 12 13 12 13 14 15 16 18 18 15 13 15 15 16 15 14 9 14 13 12 10 10 8 8 8 6 6 5 3 3 1 1 2 3 3 4 5 5 5 5 5 4 5 6 6
15 3 4 6 3 3 5 5 10 8 7 6 9 14 15 4 9 3 3 7 6 6 2 6 14 14 6 6 6 3 2 6 5 8 12 13 12 10 12 13 9 11 11 13 15 17 17 17 15 14 15 16 16 16 16 14 13 12 12 12 11 9 9 8 9 9 7 6 5 5 4 4 4 4 4 5 5 3 3 3 2 4 5 6 6 6
6 4 3 5 7 5 7 7 5 10 8 3 6 10 14 11 4 2 2 1 5 6 3 5 4 19 8 7 7 4 3 8 4 8 12 11 10 7 9 8 9 12 10 11 11 13 15 16 16 16 17 19 18 16 13 13 13 14 11 11 11 10 9 8 9 9 7 6 5 6 5 4 4 4 3 2 2 3 3 3 5 5 5 5 6 6
4 2 4 2 6 7 4 8 8 13 4 7 2 2 3 5 7 6 4 6 9 4 3 2 6 16 15 8 4 7 9 8 10 14 16 13 14 13 9 8 10 10 11 11 13 14 15 16 18 20 20 17 17 14 13 13 12 15 13 13 12 9 9 8 9 10 8 7 6 6 5 4 5 5 4 3 3 3 4 5 5 5 5 5 6 6
3 5 7 7 7 5 11 6 9 12 8 1 1 2 4 4 3 5 5 5 3 6 8 8 8 9 14 5 8 5 13 11 15 16 16 16 13 9 9 7 12 11 11 12 11 14 16 17 17 16 16 15 14 13 15 14 12 11 11 11 11 10 10 9 10 10 8 7 7 7 6 6 5 5 5 4 4 4 4 6 6 6 6 6 6 6
2 3 7 8 8 10 4 4 3 10 11 3 5 8 7 5 6 2 3 3 5 2 9 9 11 8 23 11 6 0 4 9 10 13 16 15 13 5 6 6 9 8 8 9 11 10 12 13 13 14 12 14 13 12 13 12 10 11 10 11 13 13 10 10 11 9 10 9 7 8 7 8 7 5 5 4 5 5 5 6 6 6 6 5 5 6
2 1 3 3 9 1 6 6 3 5 5 8 4 5 3 3 2 2 1 3 3 10 9 11 18 13 17 3 11 10 8 8 10 10 10 10 8 7 6 7 6 7 8 7 8 9 9 9 11 12 14 14 13 12 13 12 13 12 11 13 14 13 10 11 11 11 11 9 9 8 9 9 9 8 6 5 6 5 5 6 6 5 5 5 6 6
3 3 2 4 4 5 4 7 5 3 3 4 3 2 1 3 3 2 1 3 5 10 6 13 16 19 12 3 7 6 5 8 10 12 12 10 9 7 5 5 6 6 6 6 7 8 9 9 10 12 14 15 15 13 14 13 13 12 12 13 15 14 12 11 11 11 11 10 10 9 9 10 9 8 6 7 7 6 6 6 6 5 5 6 6 6
5 9 3 3 3 5 5 5 3 2 2 2 4 2 2 4 2 3 4 4 8 9 1 2 5 6 22 22 0 1 2 7 8 8 9 8 8 6 3 3 3 4 5 6 7 8 9 11 13 15 15 15 16 17 17 15 13 12 13 15 16 14 13 12 11 12 11 11 10 10 10 9 8 8 8 7 6 5 5 5 5 5 5 6 6 6
3 5 3 7 2 7 9 9 4 4 9 9 9 6 4 6 4 5 8 2 5 3 3 4 2 13 16 12 15 20 19 14 8 11 11 9 6 3 2 2 2 3 5 6 7 8 10 11 12 13 15 15 15 18 18 17 15 13 12 15 16 14 13 12 12 12 12 11 10 10 9 8 7 7 7 6 6 6 5 4 5 6 6 6 7 8
5 6 9 12 7 12 15 16 6 2 13 11 6 8 7 3 3 5 5 8 10 7 3 5 2 7 1 3 3 10 12 13 11 9 9 6 9 4 1 1 2 4 6 7 7 9 10 11 13 13 14 15 15 17 17 15 15 14 14 15 17 15 14 13 13 11 12 10 11 9 9 8 6 6 5 5 5 5 5 5 6 6 6 7 7 8
11 12 3 5 4 14 13 6 7 9 5 4 1 3 1 9 4 8 2 4 4 8 8 7 8 2 6 4 3 1 2 5 7 13 11 9 10 7 5 7 7 7 7 7 8 8 10 11 12 11 12 13 13 16 15 16 15 16 16 16 17 16 15 13 13 12 12 11 9 10 9 8 7 5 5 5 5 5 5 6 6 7 7 7 8 8
3 9 6 3 1 5 2 2 2 2 8 7 6 8 5 5 7 6 1 2 1 2 16 3 10 12 8 14 12 9 7 8 7 11 9 12 13 8 9 9 10 9 8 8 9 8 10 10 12 12 13 13 13 15 17 18 17 19 17 17 18 16 14 14 13 12 11 11 10 10 9 8 8 8 7 6 6 6 5 6 7 7 8 8 8 8
8 4 2 5 6 1 2 4 3 5 1 9 6 6 5 1 4 2 6 1 3 7 13 1 16 19 11 12 5 6 10 10 10 13 12 14 14 9 14 13 10 10 8 7 8 8 9 10 12 12 12 14 16 17 16 16 14 15 14 17 17 16 16 14 13 12 11 11 10 10 9 9 8 7 7 6 6 5 6 7 7 7 7 8 7 7
4 7 5 2 5 4 1 2 3 3 5 2 1 2 5 4 4 2 1 5 5 8 7 13 17 15 20 15 5 8 12 13 15 14 13 13 12 12 12 15 13 7 5 8 10 9 10 11 13 14 14 14 13 14 14 14 13 13 13 15 15 16 15 14 11 10 9 10 7 7 9 9 8 6 6 5 5 6 7 8 7 8 8 7 8 7
1 8 3 1 1 4 2 5 7 8 3 2 2 2 4 3 3 7 7 1 2 10 5 19 21 20 5 6 6 8 14 13 13 11 13 14 13 11 11 12 11 9 10 9 9 10 10 11 13 13 14 15 15 14 13 14 13 15 15 15 14 12 12 12 12 11 11 9 8 7 7 7 6 6 6 6 6 6 7 7 7 8 8 8 7 7
4 4 8 5 4 1 6 9 10 13 11 5 6 7 2 2 3 4 3 3 5 6 9 11 15 20 2 7 8 8 12 13 13 12 12 12 12 11 13 12 10 10 10 10 9 9 10 11 10 11 12 11 11 11 11 13 16 15 13 15 15 16 14 13 11 11 10 9 8 9 8 8 7 7 6 6 7 7 7 6 7 7 6 6 7 6
2 4 13 5 3 9 7 8 9 2 9 12 15 13 15 10 6 5 10 4 2 6 9 6 15 18 10 4 7 6 7 8 9 11 11 9 12 13 11 13 11 11 12 10 9 8 7 8 9 10 10 10 11 12 14 13 14 15 15 15 14 13 13 13 12 11 10 8 8 9 8 8 6 6 6 6 6 7 6 6 6 6 6 7 7 6
7 3 5 10 11 7 8 1 3 2 2 4 6 8 12 11 9 8 11 6 2 8 6 6 7 22 3 5 3 5 5 6 7 9 10 8 12 11 11 12 10 9 7 7 7 6 6 7 9 10 12 13 14 13 14 13 15 15 16 15 13 14 13 12 12 10 9 9 8 9 7 7 7 6 7 7 6 6 6 5 6 5 6 6 6 6
3 3 3 10 8 1 3 1 1 2 4 2 10 4 6 13 14 12 8 1 6 4 7 6 6 17 3 4 6 6 5 4 6 7 7 10 9 10 10 9 8 7 8 5 5 4 5 6 8 9 12 13 13 14 15 14 14 14 14 13 13 14 15 13 11 10 10 9 8 8 8 7 7 7 6 6 5 6 5 5 5 5 5 6 5 6
4 4 6 4 3 7 8 4 4 0 3 9 7 11 11 5 9 2 4 2 4 17 19 4 12 15 7 6 8 1 0 6 8 3 4 7 8 9 9 7 5 6 7 8 8 7 7 8 11 12 12 12 12 12 13 14 15 14 14 13 14 13 13 12 11 11 10 9 9 9 8 8 7 7 6 6 5 5 5 5 4 4 5 5 6 6
7 7 9 7 14 16 12 16 13 5 10 5 5 4 12 15 14 6 9 7 9 18 12 8 17 23 16 4 6 6 4 10 7 2 4 7 8 6 5 5 5 6 9 9 8 8 11 11 10 10 12 12 12 13 14 14 14 14 13 14 13 13 13 12 11 10 10 9 9 9 9 8 7 7 7 6 5 5 5 4 4 4 4 4 6 6
3 6 14 16 16 15 19 19 3 10 7 8 9 8 14 16 17 14 9 11 17 7 10 16 23 21 18 24 25 23 11 12 8 6 9 9 9 8 8 7 8 9 8 9 9 8 7 9 13 14 13 12 13 14 13 15 15 15 14 15 13 12 12 12 11 11 10 9 9 8 9 8 8 6 6 6 5 4 3 4 3 4 5 5 6 6
2 6 16 21 22 19 22 21 24 8 8 9 8 12 14 16 17 17 15 23 7 7 15 16 29 21 17 23 28 29 24 20 19 11 15 11 9 8 9 11 14 9 9 8 9 10 13 13 12 14 15 15 14 14 14 14 15 16 16 16 14 13 12 10 11 11 10 10 9 8 9 8 7 6 6 4 4 3 3 3 3 4 4 5 6 6
4 9 8 11 19 21 20 27 26 23 15 12 12 12 14 18 17 23 27 23 8 12 19 26 23 16 18 24 30 29 22 15 16 21 18 18 7 6 10 13 13 13 12 11 12 11 12 13 14 15 15 16 15 17 17 15 15 13 12 12 13 12 12 12 12 11 11 10 9 9 8 7 6 6 5 5 4 4 4 4 4 4 4 5 6 5
0 7 7 12 17 15 20 22 25 23 20 19 18 16 19 18 24 23 23 16 22 26 26 19 22 25 21 26 28 24 16 13 13 15 17 13 6 9 9 11 15 13 13 13 13 14 15 15 14 15 16 16 19 19 18 16 16 16 16 15 14 13 12 12 11 12 11 10 9 8 8 7 6 6 5 5 4 4 4 3 3 4 5 5 6 6
2 8 9 12 13 17 22 24 26 24 22 20 18 13 16 27 24 19 20 23 25 20 22 23 22 22 21 27 21 15 17 22 20 20 25 25 26 20 13 15 16 15 16 13 13 15 15 15 14 14 16 18 19 21 19 18 17 16 15 14 14 13 13 11 11 10 10 10 9 8 8 7 7 6 6 5 4 4 3 4 4 4 5 5 5 6
5 12 10 11 13 14 18 23 26 22 16 14 13 17 27 30 22 19 21 19 17 19 23 17 14 18 24 24 21 22 23 23 23 24 23 20 17 15 12 17 21 20 14 13 16 14 13 14 15 17 19 19 19 20 18 17 16 16 16 15 15 13 12 11 11 11 9 9 9 8 8 7 7 6 5 5 5 4 4 4 4 5 5 5 5 5
8 8 10 9 13 15 21 17 15 11 5 2 13 26 32 28 20 26 27 23 22 24 19 15 21 18 18 19 19 22 23 19 21 21 20 19 13 9 14 19 20 17 16 19 17 15 14 16 18 19 18 17 17 19 20 19 16 18 17 16 14 12 12 11 10 10 9 9 9 9 8 7 7 6 5 5 5 4 4 4 5 5 5 5 5 5
8 10 10 7 11 11 16 16 12 10 15 16 23 29 21 23 29 31 25 29 27 16 16 13 16 18 23 23 23 22 18 22 23 22 22 21 11 8 18 20 23 23 23 20 14 14 15 13 12 15 18 18 19 19 17 17 18 15 13 13 12 13 11 11 10 9 9 9 8 8 8 7 6 6 6 5 4 4 4 4 5 4 4 4 4 4
11 11 13 9 9 10 13 3 6 16 19 21 12 7 22 29 31 32 33 27 21 17 17 19 23 26 26 24 22 21 22 25 21 22 27 24 17 14 21 24 24 25 24 24 14 12 12 13 13 12 12 14 15 15 15 14 13 12 12 12 13 11 11 9 10 9 9 9 8 8 7 7 6 6 6 5 5 5 4 5 4 4 4 4 4 4
14 14 9 9 9 6 3 9 11 16 4 2 6 14 18 20 21 26 29 26 22 19 20 22 26 25 24 28 25 22 24 21 17 20 24 24 20 18 21 19 21 23 21 18 12 13 12 12 14 16 16 12 13 13 14 15 13 14 13 11 12 11 10 10 10 9 9 9 8 8 7 7 7 6 6 5 5 5 4 5 4 4 3 3 3 3
20 14 10 10 11 12 11 15 21 2 5 4 5 11 17 17 23 23 16 13 12 14 20 24 26 24 31 29 27 25 22 10 12 19 23 26 21 17 20 22 24 22 21 18 13 12 11 12 11 10 11 13 14 14 15 13 13 12 12 11 9 11 11 10 10 10 9 9 9 8 8 7 7 6 6 6 5 5 5 4 4 4 3 3 3 3
20 19 14 17 10 14 16 12 10 9 16 13 18 18 18 19 17 9 10 10 7 18 24 24 24 26 30 25 25 25 7 3 10 16 25 27 18 14 19 20 20 19 17 15 5 2 5 7 7 9 13 14 13 13 11 13 13 13 12 11 11 11 11 10 10 10 10 9 9 8 7 7 7 6 6 6 5 4 4 3 3 3 2 2 2 4
22 22 19 18 12 10 14 13 12 13 13 11 21 23 27 25 16 8 3 12 8 24 26 27 27 23 25 24 24 19 3 7 15 18 20 25 14 10 16 17 15 14 11 7 7 6 7 8 11 11 11 13 13 12 13 15 15 13 13 12 12 11 11 11 10 11 10 10 9 8 7 6 6 6 6 5 5 4 4 3 4 3 2 1 2 4
23 16 13 15 15 13 14 13 15 7 11 12 16 18 24 20 5 4 13 11 18 30 26 29 28 24 25 24 21 15 10 13 17 19 25 18 5 9 13 14 12 9 6 4 4 7 9 12 14 13 14 16 15 14 16 16 15 13 12 12 12 12 11 11 10 10 9 9 9 8 7 6 6 6 5 5 4 4 4 3 3 2 1 2 2 3
15 13 15 17 14 21 24 17 12 9 4 10 19 22 9 13 13 12 20 13 21 23 23 23 23 21 21 20 16 14 17 20 21 22 21 2 4 5 5 3 5 5 9 9 8 11 11 11 14 16 17 12 14 13 11 12 14 14 12 12 12 12 9 9 9 10 10 9 8 8 7 6 6 5 5 4 5 4 3 2 2 1 0 1 2 3
10 9 11 14 14 13 15 16 19 16 11 11 13 19 11 10 10 21 19 20 21 21 20 16 16 17 16 17 15 16 18 20 21 18 18 17 16 11 7 6 5 4 4 5 8 14 10 11 10 11 11 12 14 14 13 13 21 12 11 11 11 10 9 10 9 9 9 9 8 8 7 6 6 5 4 4 4 4 3 2 2 1 1 1 2 4
12 12 12 14 9 14 9 13 8 14 7 24 27 12 13 17 20 17 19 18 20 19 19 18 16 16 15 14 16 17 18 19 18 18 18 18 16 14 10 9 10 10 11 11 11 8 11 12 13 14 15 12 13 12 13 20 23 16 9 9 10 10 10 9 8 8 8 8 8 7 6 7 7 5 4 4 4 4 2 2 2 1 1 1 2 3
14 12 5 10 11 12 16 13 11 18 20 24 22 16 17 28 21 23 21 21 17 17 16 16 16 17 17 17 16 17 18 18 18 17 16 15 14 9 8 7 5 5 6 3 7 14 15 11 10 14 14 12 11 12 14 25 24 19 13 11 9 10 10 9 9 8 8 8 8 8 7 7 7 6 4 4 3 3 3 1 1 2 2 2 2 3
13 16 15 13 16 15 11 15 20 18 16 15 23 24 20 25 25 26 23 21 18 16 16 14 17 17 18 20 20 19 17 16 18 18 17 17 16 12 11 9 10 10 10 12 12 13 11 16 17 16 13 10 10 8 15 15 20 19 17 10 10 11 11 10 10 9 9 9 10 9 8 7 6 5 4 3 3 3 3 1 1 3 3 3 2 3
10 18 19 18 17 15 20 17 9 13 17 18 20 23 26 26 22 21 22 19 16 16 13 14 15 17 17 16 15 15 15 17 18 17 16 16 14 7 8 7 8 7 8 7 8 11 14 17 19 16 15 11 10 12 16 14 17 25 14 12 10 11 11 11 11 11 10 8 8 9 8 9 7 5 3 2 2 2 2 2 2 3 3 2 2 3
5 8 9 10 12 13 15 6 18 16 15 17 17 21 22 19 16 14 17 19 21 20 18 17 17 17 17 8 13 14 17 18 18 18 16 13 11 12 14 14 14 14 16 15 15 15 15 19 16 17 18 18 12 11 11 13 9 11 12 13 12 11 11 10 11 11 9 10 9 7 7 7 6 5 4 2 2 2 2 2 2 3 3 1 2 4
7 5 10 7 13 12 14 13 15 13 18 15 13 14 15 17 20 19 17 18 20 21 21 21 18 15 11 10 11 16 18 18 17 16 14 13 14 13 12 14 15 10 9 9 13 18 20 20 20 18 18 16 14 12 13 15 15 10 11 11 11 11 11 11 10 10 10 10 7 6 6 6 7 6 4 3 3 3 3 2 3 3 2 0 2 4
12 12 12 7 14 14 16 17 19 22 22 21 20 8 9 12 13 15 15 15 14 16 18 19 17 18 16 17 16 16 14 17 16 18 13 10 9 9 12 15 15 16 14 16 16 25 21 19 18 19 19 15 14 13 13 14 11 11 12 11 11 13 13 10 9 9 10 8 6 6 5 5 5 3 4 3 3 2 2 2 2 3 1 3 3 5
12 14 13 14 14 15 12 14 11 12 11 13 14 15 14 12 15 14 16 17 16 18 19 20 19 17 16 15 17 17 15 15 18 16 14 13 13 14 11 12 14 15 14 11 13 13 12 13 19 20 18 14 14 13 14 13 11 11 10 11 12 11 12 11 10 9 8 6 6 7 6 6 5 4 4 3 2 2 2 4 5 4 2 2 5 8
15 15 11 14 13 17 10 11 7 9 12 11 15 19 21 16 14 13 10 13 14 15 15 15 18 21 20 18 14 15 17 18 21 17 14 10 12 11 13 15 16 14 14 16 17 15 18 16 16 19 20 15 14 14 13 12 12 11 10 11 12 11 12 12 10 7 6 6 5 6 6 6 6 4 4 3 3 2 1 1 3 0 5 5 5 8
Wind_Direction
3 213 223 228 233 219 203 208 229 290 303 53 174 229 252 257 266 272 133 112 155 259 246 252 255 259 263 265 270 269 264 241 247 252 254 256 249 241 233 219 208 212 223 207 198 184 176 177 179 181 176 177 174 180 178 178 180 181 177 174 178 173 170 174 174 180 182 181 175 175 192 183 159 168 146 191 188 207 238 245 263 260 257 258 268 271
224 234 243 238 240 173 213 202 168 114 176 229 248 242 261 222 261 254 46 124 159 226 270 244 263 259 261 264 266 269 238 259 258 255 258 259 252 247 236 224 208 217 202 162 183 176 168 178 178 175 178 177 181 188 181 183 184 184 181 182 177 172 178 186 184 176 180 185 186 178 166 167 157 166 185 183 169 204 231 252 252 254 252 255 266 275
203 227 243 259 82 85 58 140 188 208 193 180 236 251 280 263 274 280 293 111 147 197 265 271 278 270 263 259 260 258 250 242 258 255 263 267 270 260 235 224 207 196 210 196 204 182 184 179 178 181 187 190 191 182 184 185 181 182 180 185 181 176 178 182 176 171 178 170 150 169 138 153 129 125 316 308 285 270 256 251 250 253 254 260 264 269
242 243 265 91 124 116 71 97 164 130 203 205 198 229 239 259 346 281 109 94 168 223 297 308 292 278 262 250 251 255 254 257 255 262 260 259 257 259 259 224 187 206 213 205 193 189 187 183 184 185 189 188 186 181 185 189 187 179 183 186 179 176 180 176 173 176 160 148 133 124 102 91 324 314 324 275 264 251 244 246 245 245 253 261 266 267
225 76 304 108 123 189 165 151 176 194 220 212 225 230 256 245 226 224 308 312 210 231 287 283 268 259 228 240 246 247 330 249 264 261 262 258 248 255 274 236 200 217 210 200 192 190 186 187 192 191 185 179 189 189 189 188 185 174 184 182 177 175 179 175 168 171 158 141 147 145 129 160 222 239 246 242 238 222 224 234 228 234 246 261 266 264
255 166 149 99 124 140 138 187 211 198 236 215 223 227 238 258 267 227 28 344 299 281 123 351 324 283 157 180 224 264 270 252 237 231 251 252 245 238 242 234 200 225 215 196 191 190 188 191 189 185 183 188 194 195 193 185 181 175 183 177 176 174 176 174 170 169 163 170 176 172 186 197 208 218 207 220 231 217 227 239 244 250 247 256 261 261
252 50 208 164 152 180 206 230 199 188 225 218 244 202 233 248 264 314 299 14 265 267 64 309 352 291 129 184 183 196 216 264 236 217 242 256 262 203 227 199 195 218 208 209 202 187 187 190 186 187 189 194 194 197 181 177 181 183 179 173 175 176 174 169 166 165 167 170 181 190 200 219 228 238 233 245 266 259 266 276 273 271 263 255 267 271
129 114 113 140 155 182 210 242 193 182 185 234 64 127 136 203 218 220 216 230 270 52 268 168 237 278 283 209 157 196 227 238 265 271 272 261 246 247 228 191 206 213 201 194 200 194 190 187 189 192 195 192 196 183 174 178 182 184 181 178 178 174 171 162 165 167 173 174 178 182 194 210 226 231 241 233 255 268 275 271 274 282 279 275 271 277
144 138 175 150 190 187 223 225 121 179 188 263 66 23 103 120 163 152 208 251 297 337 284 184 206 270 260 176 200 221 237 241 254 257 259 259 256 235 244 204 212 213 202 194 191 195 191 191 194 194 192 193 184 179 179 183 183 179 179 178 174 176 174 166 166 166 172 178 178 182 192 209 221 230 239 239 241 257 260 270 273 274 280 280 273 266
311 185 197 178 160 215 164 28 200 174 211 91 126 85 85 84 73 177 220 250 259 270 255 182 174 244 279 146 159 21 204 236 241 246 248 250 255 233 238 224 214 206 202 202 205 196 195 195 193 192 183 180 186 180 179 180 173 179 177 179 177 179 176 163 166 166 167 173 172 185 195 204 213 217 225 227 235 237 247 259 264 267 271 273 276 268
106 229 348 208 215 217 98 59 51 15 41 128 165 109 84 82 129 104 84 254 286 242 233 197 184 203 279 172 154 157 189 195 224 241 256 264 269 249 228 216 197 194 192 191 197 197 195 189 184 178 184 185 181 181 181 182 183 183 179 181 181 179 169 165 168 168 169 172 179 189 194 199 211 216 223 230 230 231 236 251 257 261 269 276 278 285
163 123 216 237 64 104 99 93 59 60 106 169 148 172 221 198 141 166 191 186 237 266 145 195 193 196 235 263 145 144 97 193 209 233 241 250 251 245 191 197 190 180 180 179 186 190 179 177 184 183 191 185 182 179 186 189 185 184 183 179 180 176 171 167 167 170 171 174 183 192 193 201 207 209 212 221 230 231 242 252 266 272 277 278 278 276
239 206 161 82 261 146 159 116 92 122 168 203 157 154 229 265 2 237 150 222 197 248 131 71 141 249 234 246 12 78 262 232 233 245 258 248 244 233 178 161 155 162 165 183 187 180 185 189 187 188 189 180 183 189 188 188 185 183 185 182 179 177 171 168 165 172 172 176 183 189 195 202 203 209 214 222 231 234 241 248 254 264 269 275 272 265
253 62 151 188 114 226 175 192 161 216 189 184 188 184 199 254 225 261 251 180 289 224 126 109 115 247 268 286 237 246 239 233 206 232 249 264 272 285 93 118 143 171 186 198 191 187 188 189 188 188 188 186 187 188 187 186 182 181 183 183 184 175 169 166 169 173 174 181 185 189 194 199 199 205 210 220 227 232 238 246 254 257 262 268 268 274
274 248 195 149 226 155 192 213 194 130 153 196 178 178 223 187 205 256 269 273 278 303 138 227 94 243 51 199 216 220 230 234 218 227 238 238 258 256 80 310 244 217 207 205 200 196 193 193 189 187 189 189 191 188 185 184 183 179 182 183 182 168 172 169 171 172 177 181 186 188 194 195 197 201 206 216 226 230 236 244 251 256 258 260 266 270
227 258 67 166 358 146 188 195 84 106 104 150 150 30 272 229 168 248 310 297 315 317 291 155 220 254 229 87 196 152 27 241 225 231 224 236 235 217 231 232 230 218 210 203 210 206 203 196 191 190 192 194 191 189 188 186 181 182 184 180 180 171 169 171 172 175 178 180 182 186 187 191 193 199 206 218 218 227 231 241 249 255 255 258 264 268
54 252 125 128 71 194 79 44 166 169 214 161 148 207 200 16 191 257 323 136 90 239 264 162 260 254 261 247 174 215 167 220 220 238 230 238 240 179 230 236 223 215 207 202 210 207 197 193 197 196 194 191 190 189 192 190 186 183 175 175 177 169 168 173 174 173 177 176 176 182 182 185 191 199 206 211 219 225 235 242 247 250 254 261 263 266
232 247 129 165 204 76 21 330 55 28 334 110 224 196 103 13 2 176 251 244 238 250 272 353 270 291 280 289 99 170 205 221 218 227 217 231 244 226 231 236 228 218 206 205 215 211 199 198 198 198 200 198 196 193 190 188 182 181 176 176 171 167 170 172 170 172 173 171 174 175 180 187 192 196 205 215 223 229 234 238 241 247 252 253 261 268
118 288 184 297 45 83 71 206 107 59 19 306 349 316 192 187 188 151 69 249 246 239 270 272 279 275 257 259 135 158 195 216 229 224 213 235 232 227 237 243 240 221 209 214 215 207 201 201 201 201 200 197 197 192 188 182 171 172 173 177 173 171 168 164 166 168 167 168 168 173 179 184 186 193 200 211 220 228 235 239 244 250 257 266 265 265
241 237 260 339 96 110 150 183 203 178 211 100 243 182 355 320 185 165 202 258 225 269 298 279 288 270 226 206 207 205 194 207 213 213 217 222 220 214 225 235 232 212 216 215 208 206 204 203 203 200 196 193 191 184 180 172 169 178 175 172 171 162 160 162 165 162 163 166 166 166 169 178 182 187 199 208 216 228 235 243 249 256 261 263 270 272
222 98 261 89 304 129 204 189 214 180 175 188 205 197 163 200 359 347 338 207 217 246 239 269 281 276 294 141 147 206 198 208 204 208 217 219 221 221 220 228 227 224 225 217 206 205 202 200 198 198 195 191 184 181 175 175 179 178 174 174 169 165 164 164 162 161 162 160 168 169 175 177 177 189 198 208 221 232 241 247 250 256 264 276 272 279
161 172 235 177 170 214 243 175 234 274 187 174 180 193 184 161 187 190 245 115 226 215 237 221 251 267 270 95 148 195 208 205 204 211 218 213 219 225 231 230 223 219 224 218 213 202 195 190 191 190 186 177 174 178 179 177 174 177 176 175 167 163 164 163 163 166 158 160 168 172 176 177 178 187 198 208 219 232 238 247 252 258 270 269 276 281
184 181 208 229 228 240 246 84 281 299 304 257 201 215 184 199 171 184 231 201 54 251 275 248 291 266 221 98 148 198 192 192 205 213 225 207 211 221 223 225 223 222 212 220 216 197 192 185 188 188 186 188 188 185 179 175 181 179 176 170 169 164 166 163 160 159 157 162 166 172 172 175 182 187 199 210 224 229 238 248 256 261 267 275 282 283
68 156 207 254 286 270 107 76 114 220 166 125 248 258 170 204 195 204 224 153 225 168 226 214 216 265 274 94 237 201 218 204 234 205 206 210 216 226 224 214 223 225 238 217 205 194 187 179 179 179 187 188 187 182 182 181 179 176 174 171 165 168 161 159 157 156 156 160 165 167 172 178 182 189 199 211 221 228 240 250 260 268 270 278 281 280
145 229 195 228 252 281 253 152 154 323 214 220 209 203 207 208 206 259 37 67 255 235 237 162 244 254 258 170 251 98 185 258 241 222 255 254 236 229 219 215 197 218 233 225 214 198 183 186 189 196 194 192 189 183 181 180 180 175 175 169 169 164 160 155 156 156 159 163 164 171 176 180 182 190 200 209 219 231 245 254 263 266 274 278 280 285
190 162 176 191 221 235 238 241 240 174 210 223 314 190 195 206 198 163 236 212 236 244 219 219 251 250 269 238 222 173 219 259 231 176 255 245 259 261 257 230 223 221 224 220 205 187 201 200 196 195 195 192 189 184 182 181 179 176 172 173 167 159 157 157 155 157 158 163 167 171 178 178 183 191 198 204 219 231 240 251 261 268 278 280 282 287
195 179 187 208 218 221 233 248 46 101 120 199 205 179 199 208 207 205 215 220 226 229 214 227 241 260 264 276 276 272 241 244 252 173 224 235 219 222 247 253 243 224 213 216 209 205 200 197 202 200 196 193 187 184 183 181 178 175 171 169 167 161 158 157 157 158 159 164 169 171 178 178 183 184 189 197 209 217 232 245 259 270 274 280 280 279
92 211 207 221 230 234 241 251 255 202 179 204 196 201 202 198 209 212 215 236 186 57 251 240 246 251 262 271 274 270 265 262 267 265 263 233 213 203 210 223 237 233 223 213 207 204 209 208 201 200 197 190 190 184 184 184 180 175 173 170 165 162 158 157 158 157 161 164 172 176 175 177 177 178 185 188 196 214 234 247 254 261 268 271 272 271
187 228 222 235 241 244 244 252 252 252 236 227 213 198 204 209 210 216 227 234 192 224 239 246 253 257 254 254 257 260 263 260 266 273 268 274 279 193 214 232 237 230 224 213 217 213 213 208 203 199 193 192 185 186 184 180 177 171 170 164 164 162 162 157 156 159 163 169 173 174 170 166 170 174 175 185 193 210 217 230 251 255 263 264 265 271
70 249 247 245 261 258 259 256 257 258 258 256 252 252 249 228 221 215 233 226 219 235 242 252 256 258 259 256 253 258 270 271 273 277 283 276 201 212 228 244 245 238 223 216 214 214 214 209 202 193 191 188 190 186 184 182 179 177 171 169 166 164 161 157 160 159 165 170 172 164 163 162 162 167 170 179 193 200 208 224 242 251 256 261 263 268
173 245 239 257 263 254 253 254 256 255 257 262 261 251 244 247 245 230 239 243 240 248 253 251 255 263 257 256 264 282 281 280 284 280 278 277 273 267 261 257 254 238 225 215 208 212 208 206 199 192 190 193 189 188 185 183 178 172 169 166 164 163 160 158 155 161 166 167 162 158 157 162 165 167 176 181 185 193 204 227 236 250 256 258 264 268
195 255 244 248 252 249 246 246 248 253 260 259 255 250 250 248 242 234 235 231 236 249 249 253 254 245 249 257 266 270 270 273 274 272 270 264 264 273 262 263 265 268 251 215 219 211 200 199 197 195 197 194 190 185 182 178 173 170 173 165 164 158 154 154 156 159 163 156 155 157 159 162 162 168 177 176 190 192 202 224 238 246 252 259 264 266
188 222 227 222 237 242 246 245 255 262 274 236 231 237 239 244 249 250 251 251 242 241 253 246 241 246 259 261 265 262 263 264 263 262 263 267 268 256 259 262 266 264 262 258 243 209 199 199 199 198 196 189 186 185 186 174 166 175 170 162 160 141 151 153 154 157 156 156 156 158 160 160 164 169 175 185 180 189 206 220 235 242 246 251 259 265
205 214 230 208 239 243 250 254 249 246 233 224 224 229 234 243 243 245 244 246 246 232 243 250 265 260 258 257 252 255 264 261 261 266 269 272 287 294 273 268 268 268 268 263 242 218 199 200 200 197 192 187 187 185 174 170 171 167 152 142 135 144 147 148 154 155 154 154 157 159 159 162 164 173 176 175 178 193 209 217 231 238 249 249 252 256
213 217 233 217 239 239 243 224 219 225 230 233 244 227 237 239 246 252 255 256 262 254 256 257 254 254 254 257 256 265 263 263 269 273 274 276 276 266 266 269 267 267 268 271 249 215 205 197 195 185 181 184 174 163 155 159 155 136 129 138 142 147 145 151 150 154 156 155 159 158 161 164 168 172 174 175 182 197 209 220 230 239 243 240 247 257
223 219 219 224 223 247 198 212 236 241 217 6 159 230 244 254 259 261 261 252 250 252 256 254 255 258 263 263 269 265 263 270 280 276 271 270 259 250 255 259 264 267 267 266 251 226 198 186 189 187 187 161 147 157 158 159 145 139 145 142 143 145 149 150 153 154 154 156 162 163 166 165 168 171 173 174 185 194 212 215 224 234 245 249 256 267
222 229 219 246 204 231 220 216 230 271 352 202 208 227 221 218 229 227 242 238 240 249 249 251 252 255 259 264 268 269 271 283 278 274 272 266 255 239 242 251 258 263 267 270 265 250 212 184 180 167 142 152 158 150 159 145 138 135 133 143 143 145 149 151 153 157 159 161 162 165 164 167 166 167 169 179 183 194 209 213 226 237 233 251 273 281
213 219 209 227 217 207 233 232 238 224 238 218 219 236 245 245 252 263 238 249 189 251 242 242 248 251 257 260 262 265 295 319 266 268 267 271 263 221 234 243 250 256 261 270 285 167 172 169 143 138 152 149 149 151 139 132 139 140 142 145 148 150 153 157 162 160 160 161 162 164 161 165 163 164 173 176 183 193 207 213 234 224 234 246 293 295
218 218 221 223 233 214 233 234 228 226 233 182 229 234 243 248 239 82 247 250 194 239 247 251 250 248 254 255 258 260 247 252 264 262 274 269 269 184 225 233 237 242 249 234 188 174 160 158 149 135 127 137 144 148 134 138 142 142 148 149 154 155 157 168 163 161 160 158 154 154 152 157 162 168 171 174 182 193 211 215 218 227 231 271 280 285
215 211 209 228 232 227 238 234 241 216 244 187 217 231 241 247 129 124 253 238 227 239 238 247 252 250 248 250 252 256 240 245 248 256 256 266 270 200 198 218 219 215 196 141 160 158 136 125 122 140 154 164 161 140 146 147 152 149 146 152 151 159 168 168 162 151 142 140 145 147 151 156 163 168 168 169 182 200 212 213 222 216 272 305 291 301
209 211 211 221 215 223 224 242 248 246 210 167 210 227 221 126 147 205 231 224 228 236 238 241 246 247 248 247 244 243 232 232 237 244 256 185 242 232 222 261 217 180 170 166 160 139 139 153 157 165 167 154 139 142 141 144 145 153 149 148 155 167 160 142 136 134 136 137 139 143 149 150 162 170 168 170 186 193 202 209 218 243 331 309 312 315
222 198 223 218 220 213 223 229 232 240 214 195 228 223 148 144 201 225 230 230 242 242 244 238 240 244 244 236 235 234 240 242 243 247 256 254 248 253 179 173 134 125 110 126 143 147 142 146 140 128 132 137 141 146 151 148 141 134 142 147 159 149 121 123 131 130 133 138 138 138 142 148 156 163 160 176 192 195 187 185 200 234 76 347 337 324
161 197 191 198 207 232 231 243 241 241 137 191 225 214 173 210 229 226 242 238 238 243 244 247 240 241 239 242 233 237 241 244 247 244 242 247 246 231 195 170 182 171 165 150 165 176 146 151 154 161 147 143 139 144 153 138 131 132 129 143 126 116 120 125 127 129 132 129 130 135 143 152 158 156 157 178 190 176 174 184 174 154 132 54 351 325
168 226 193 208 175 213 214 205 213 219 219 200 197 209 193 216 222 228 233 245 234 238 238 243 242 242 240 242 242 238 238 243 248 250 248 246 242 221 187 193 172 157 156 182 157 162 159 139 130 119 117 125 139 147 158 160 157 147 149 131 115 119 117 125 129 132 129 130 133 141 148 156 154 146 155 178 187 167 155 174 166 125 77 39 3 340
164 223 216 223 187 199 210 211 219 225 228 209 204 222 220 219 224 231 234 238 242 237 235 241 244 242 238 239 241 243 247 241 245 243 242 238 235 204 190 189 182 178 174 169 176 168 167 152 151 144 143 150 139 119 122 145 133 125 136 123 130 136 135 136 137 136 136 143 150 151 151 153 149 141 156 177 176 163 155 189 140 96 69 51 1 339
237 234 243 248 245 228 238 234 241 228 231 225 213 223 231 233 225 232 241 251 246 249 241 241 241 244 247 240 244 243 241 244 243 242 241 240 238 189 153 155 170 166 153 149 150 170 161 127 127 134 133 135 135 140 143 141 145 144 141 138 142 145 142 139 139 141 148 147 148 154 153 145 133 136 152 180 157 141 139 151 123 87 66 38 341 326
254 294 296 271 313 299 266 217 244 243 231 225 227 230 235 243 250 238 239 241 248 248 250 249 252 249 245 238 228 232 240 241 244 245 241 239 224 198 194 192 176 173 171 176 171 154 152 150 146 149 148 147 157 147 147 138 143 126 134 147 146 143 140 138 137 137 143 150 148 150 155 142 142 145 158 170 156 144 150 167 119 96 79 40 326 317
279 16 326 282 282 259 275 307 311 302 282 276 257 250 249 241 241 241 239 237 240 244 249 256 259 261 259 244 215 236 244 245 245 246 244 234 228 213 198 189 175 174 187 159 158 159 149 157 157 156 153 150 153 152 143 139 133 135 135 137 138 135 134 138 142 145 150 150 151 156 152 134 135 146 147 149 151 146 155 155 132 106 112 133 307 305
307 332 282 320 288 281 285 280 281 291 298 296 291 312 288 289 281 272 275 285 291 286 278 272 267 268 267 261 254 249 251 254 251 247 245 238 229 215 208 195 184 173 153 169 175 167 173 168 160 158 155 150 151 147 145 135 129 136 142 139 134 142 140 138 137 131 141 148 147 141 135 128 142 148 141 145 136 138 162 171 138 123 170 240 234 277
294 261 278 284 276 272 262 285 290 280 281 291 297 301 294 298 305 303 298 284 280 280 281 284 288 286 284 278 272 269 263 259 256 252 245 238 230 223 209 190 179 163 179 176 158 176 155 158 151 155 153 150 151 147 140 133 133 139 139 137 144 146 135 134 136 138 146 158 151 138 137 134 138 145 147 139 124 135 170 194 181 184 196 259 300 323
242 253 254 256 257 265 288 302 9 314 296 280 292 298 300 312 310 303 298 295 288 279 284 284 284 285 284 279 271 265 266 266 266 264 256 254 248 227 205 184 168 176 176 165 159 171 172 172 162 147 144 151 148 141 134 132 139 136 139 145 152 149 142 138 139 140 147 157 155 150 138 138 138 147 142 136 132 152 129 72 48 206 232 246 303 324